Rochester, NY

7:14 AM EDT on October 22, 2019 (GMT -0400)
Greater Rochester International

Weather History for KROC - May, 2019

Change the Weather History Date:

Friday, May 24, 2019

  Actual Average Record
Temperature  
Mean Temperature 62 °F 59 °F  
Max Temperature 69 °F 70 °F 91 °F (2007)
Min Temperature 55 °F 49 °F 31 °F (1956)
Degree Days  
Heating Degree Days 3 7  
Month to date heating degree days 245 235  
Since 1 July heating degree days 6369 6538  
Cooling Degree Days 0 1  
Month to date cooling degree days 4 15  
Year to date cooling degree days 4 19  
Growing Degree Days 12 (Base 50)    
Moisture  
Dew Point 49 °F    
Average Humidity 63    
Maximum Humidity 77    
Minimum Humidity 49    
Precipitation  
Precipitation 0.00 in 0.10 in 0.98 in (2004)
Month to date precipitation 2.28 2.22  
Year to date precipitation 12.21 11.81  
Snow  
Snow 0.00 in 0.00 in T in (1925)
Month to date snowfall 0.0 0.4  
Since 1 July snowfall 97.1 99.5  
Snow Depth 0.00 in    
Sea Level Pressure  
Sea Level Pressure 30.06 in    
Wind  
Wind Speed 9 mph (NW)    
Max Wind Speed 17 mph    
Max Gust Speed 24 mph    
Visibility 10 miles    
Events      
T = Trace of Precipitation, MM = Missing Value Source: NWS Daily Summary

Daily Weather History Graph

Daily Weather History Graph

Search for Another Location

Airport or City:

Astronomy

May. 24, 2019 Rise Set
Actual Time 5:39 AM EDT 8:36 PM EDT
Civil Twilight 5:05 AM EDT 9:10 PM EDT
Nautical Twilight 4:22 AM EDT 9:53 PM EDT
Astronomical Twilight 3:32 AM EDT 10:44 PM EDT
Moon 12:59 AM EDT (5/24) 10:38 AM EDT (5/24)
Length of Visible Light 16h 04m
Length of Day
14h 57m
Waning Gibbous, 69% of the Moon is Illuminated
May 24
Waning Gibbous
May 26
Last Quarter
Jun 3
New
Jun 10
First Quarter
Jun 17
Full

Hourly Weather History & Observations

Time (EDT) Temp. Dew Point Humidity Pressure Visibility Wind Dir Wind Speed Gust Speed Precip Events Conditions
12:54 AM 62.1 °F 46.0 °F 56% 29.92 in 10.0 mi WNW 11.5 mph - N/A   Overcast
1:54 AM 59.0 °F 46.0 °F 62% 29.93 in 10.0 mi West 12.7 mph - N/A   Scattered Clouds
2:54 AM 57.9 °F 46.0 °F 65% 29.93 in 10.0 mi West 13.8 mph - N/A   Scattered Clouds
3:54 AM 57.0 °F 46.0 °F 67% 29.93 in 10.0 mi WNW 11.5 mph 21.9 mph N/A   Partly Cloudy
4:54 AM 55.9 °F 46.0 °F 69% 29.95 in 10.0 mi West 12.7 mph - N/A   Partly Cloudy
5:54 AM 55.9 °F 46.9 °F 72% 29.97 in 10.0 mi WNW 11.5 mph - N/A   Partly Cloudy
6:29 AM 55.9 °F 46.9 °F 72% 29.98 in 10.0 mi WNW 13.8 mph 19.6 mph N/A   Mostly Cloudy
6:54 AM 57.0 °F 48.0 °F 72% 30.01 in 10.0 mi WNW 10.4 mph 20.7 mph N/A   Mostly Cloudy
7:32 AM 57.9 °F 48.0 °F 70% 30.01 in 10.0 mi NW 15.0 mph 24.2 mph N/A   Mostly Cloudy
7:54 AM 59.0 °F 48.0 °F 67% 30.03 in 10.0 mi NW 13.8 mph 23.0 mph N/A   Mostly Cloudy
8:44 AM 60.1 °F 48.9 °F 67% 30.04 in 10.0 mi WNW 12.7 mph 20.7 mph N/A   Mostly Cloudy
8:54 AM 60.1 °F 50.0 °F 69% 30.05 in 10.0 mi NW 10.4 mph 19.6 mph N/A   Mostly Cloudy
9:54 AM 61.0 °F 48.9 °F 64% 30.06 in 10.0 mi NNW 13.8 mph 21.9 mph N/A   Mostly Cloudy
10:54 AM 62.1 °F 50.0 °F 65% 30.08 in 10.0 mi NW 15.0 mph - N/A   Mostly Cloudy
11:54 AM 62.1 °F 48.9 °F 62% 30.10 in 10.0 mi NNW 11.5 mph 18.4 mph N/A   Mostly Cloudy
12:20 PM 63.0 °F 48.9 °F 60% 30.10 in 10.0 mi NW 11.5 mph - N/A   Overcast
12:54 PM 63.0 °F 50.0 °F 63% 30.11 in 10.0 mi North 10.4 mph - N/A   Mostly Cloudy
1:54 PM 63.0 °F 50.0 °F 63% 30.12 in 10.0 mi NNW 9.2 mph - N/A   Overcast
2:54 PM 64.9 °F 50.0 °F 58% 30.13 in 10.0 mi WNW 11.5 mph - N/A   Mostly Cloudy
3:54 PM 66.9 °F 51.1 °F 57% 30.14 in 10.0 mi NNW 8.1 mph - N/A   Mostly Cloudy
4:54 PM 68.0 °F 51.1 °F 55% 30.14 in 10.0 mi NNW 6.9 mph - N/A   Mostly Cloudy
5:54 PM 68.0 °F 48.9 °F 50% 30.14 in 10.0 mi WNW 8.1 mph - N/A   Mostly Cloudy
6:54 PM 68.0 °F 50.0 °F 52% 30.14 in 10.0 mi NNW 9.2 mph - N/A   Scattered Clouds
7:54 PM 68.0 °F 48.9 °F 50% 30.13 in 10.0 mi Calm Calm - N/A   Partly Cloudy
8:54 PM 63.0 °F 48.9 °F 60% 30.13 in 10.0 mi Calm Calm - N/A   Partly Cloudy
9:54 PM 59.0 °F 50.0 °F 72% 30.14 in 10.0 mi Calm Calm - N/A   Partly Cloudy
10:54 PM 55.9 °F 48.9 °F 77% 30.17 in 10.0 mi Calm Calm - N/A   Clear
11:54 PM 57.0 °F 48.9 °F 74% 30.18 in 10.0 mi ESE 4.6 mph - N/A   Clear